GW4386 Weather Reports


Display with metric or nautical units.
time (UTC)temp
F
wind
direction
speed
MPH
gust
MPH
rain 1hr
in
rain 24hr
in
rain mn
in
humidity
%
barometer
mb
20260906194600 52 191 0.0 1.0 0.00 0.06 0.06 89 1027.3
20260906194502 52 186 0.0 1.0 0.00 0.06 0.06 89 1027.4
20260906194000 52 294 0.0 0.0 0.00 0.06 0.06 89 1027.4
20260906193601 52 294 0.0 0.0 0.00 0.06 0.06 89 1027.4
20260906193501 52 294 0.0 0.0 0.00 0.06 0.06 89 1027.4
20260906193103 52 179 0.0 0.0 0.00 0.06 0.06 92 1027.3
20260906192604 52 227 0.0 0.0 0.00 0.06 0.06 89 1027.3
20260906192501 52 202 0.0 0.0 0.00 0.06 0.06 89 1027.3
20260906192100 52 193 0.0 0.0 0.00 0.06 0.06 89 1027.3
20260906192002 52 206 0.0 0.0 0.00 0.06 0.06 89 1027.3
20260906191612 53 46 0.0 0.0 0.00 0.06 0.06 89 1027.3
20260906191501 53 46 0.0 0.0 0.00 0.06 0.06 89 1027.3
20260906191100 53 46 0.0 1.0 0.00 0.06 0.06 89 1027.2
20260906190603 53 209 0.0 1.0 0.00 0.06 0.06 89 1027.2
20260906190502 53 209 0.0 1.0 0.00 0.06 0.06 89 1027.3
20260906190100 53 197 0.0 1.0 0.00 0.06 0.06 88 1027.3
20260906190001 53 182 0.0 1.0 0.00 0.06 0.06 88 1027.3
20260906185604 53 206 0.0 1.0 0.00 0.06 0.06 88 1027.3
20260906185100 54 200 0.0 1.0 0.00 0.06 0.06 88 1027.3
20260906184605 54 214 0.0 3.0 0.00 0.06 0.06 88 1027.3
20260906184059 54 207 0.0 3.0 0.00 0.06 0.06 88 1027.3
20260906183601 54 211 0.0 1.0 0.00 0.06 0.06 88 1027.3
20260906183100 55 207 0.0 3.0 0.00 0.06 0.06 87 1027.3
20260906182605 55 217 0.0 3.0 0.00 0.06 0.06 87 1027.2
20260906182104 56 202 0.0 3.0 0.00 0.06 0.06 87 1027.2
20260906181601 56 207 1.0 3.0 0.00 0.06 0.06 86 1027.2
20260906181100 56 212 1.0 3.0 0.00 0.06 0.06 85 1027.2
20260906180503 57 216 0.0 3.0 0.00 0.06 0.06 84 1027.2
20260906180114 57 211 1.0 3.0 0.00 0.06 0.06 84 1027.1
20260906180003 58 193 1.0 4.0 0.00 0.06 0.06 84 1027.1
20260906175502 58 212 1.0 4.0 0.00 0.09 0.06 83 1027.1
20260906175005 59 195 1.0 3.0 0.00 0.09 0.06 82 1027.0
20260906174501 59 207 0.0 3.0 0.00 0.09 0.06 81 1027.0
20260906174011 59 186 0.0 3.0 0.00 0.09 0.06 81 1027.0
20260906173502 60 170 0.0 4.0 0.00 0.09 0.06 81 1026.9
20260906173001 60 197 1.0 6.0 0.00 0.09 0.06 80 1027.0
20260906172502 60 221 3.0 6.0 0.00 0.09 0.06 80 1027.0
20260906172001 60 211 2.0 6.0 0.00 0.09 0.06 80 1026.9
20260906171502 60 205 1.0 6.0 0.00 0.09 0.06 80 1026.8
20260906171002 60 211 3.0 7.0 0.00 0.09 0.06 80 1026.8
20260906170504 60 209 2.0 7.0 0.00 0.09 0.06 79 1026.8
20260906170001 60 214 1.0 7.0 0.00 0.28 0.06 79 1026.8
20260906165600 61 227 1.0 6.0 0.00 0.28 0.06 78 1026.7
20260906165100 61 227 2.0 6.0 0.00 0.28 0.06 78 1026.7
20260906164600 61 220 2.0 7.0 0.00 0.28 0.06 77 1026.7
20260906164501 61 223 1.0 7.0 0.00 0.28 0.06 77 1026.7
20260906164103 62 198 3.0 7.0 0.00 0.28 0.06 77 1026.6
20260906164002 62 215 3.0 7.0 0.00 0.28 0.06 77 1026.6
20260906163600 62 221 2.0 5.0 0.00 0.28 0.06 76 1026.6
20260906163002 62 223 3.0 8.0 0.00 0.28 0.06 75 1026.6
20260906162601 63 236 2.0 8.0 0.00 0.28 0.06 74 1026.5
20260906162100 63 271 4.0 9.0 0.00 0.28 0.06 73 1026.4
20260906161600 63 242 4.0 9.0 0.00 0.28 0.06 72 1026.4
20260906161501 64 313 4.0 9.0 0.00 0.28 0.06 72 1026.4
20260906161100 64 235 4.0 9.0 0.00 0.28 0.06 72 1026.4
20260906161003 64 280 3.0 13.0 0.00 0.28 0.06 72 1026.4
20260906160501 64 121 2.0 13.0 0.00 0.28 0.06 72 1026.4
20260906160100 64 262 4.0 10.0 0.00 0.28 0.06 71 1026.4
20260906160003 64 248 4.0 10.0 0.00 0.34 0.06 72 1026.4
20260906155600 64 292 5.0 11.0 0.00 0.34 0.06 73 1026.3
20260906155101 63 227 6.0 11.0 0.00 0.34 0.06 73 1026.3
20260906154600 63 237 5.0 11.0 0.00 0.34 0.06 73 1026.2
20260906154100 63 303 3.0 10.0 0.00 0.34 0.06 74 1026.2
20260906153503 63 244 3.0 8.0 0.00 0.34 0.06 73 1026.2
20260906153113 64 262 2.0 11.0 0.00 0.34 0.06 73 1026.2
20260906152604 64 295 3.0 11.0 0.00 0.34 0.06 71 1026.1
20260906152059 64 240 4.0 12.0 0.00 0.34 0.06 71 1026.1
20260906151608 64 305 7.0 12.0 0.00 0.34 0.06 71 1026.2
20260906151100 65 285 4.0 15.0 0.00 0.34 0.06 71 1026.1
20260906150600 65 225 8.0 15.0 0.00 0.34 0.06 70 1026.1
20260906150003 64 277 6.0 12.0 0.00 0.34 0.06 72 1026.0
20260906145501 64 260 7.0 11.0 0.00 0.35 0.06 72 1026.0
20260906145002 64 202 4.0 12.0 0.00 0.35 0.06 72 1026.0
20260906144503 64 207 6.0 13.0 0.00 0.35 0.06 71 1025.9
20260906144001 64 244 4.0 12.0 0.00 0.35 0.06 71 1025.9
20260906143501 64 306 5.0 12.0 0.00 0.35 0.06 71 1025.9
20260906143001 64 234 6.0 12.0 0.00 0.35 0.06 72 1025.8
20260906142502 64 218 4.0 14.0 0.00 0.35 0.06 72 1025.9
20260906142001 64 234 7.0 14.0 0.00 0.35 0.06 71 1025.8
20260906141501 65 292 4.0 14.0 0.00 0.35 0.06 71 1025.8
20260906141001 65 301 6.0 15.0 0.00 0.35 0.06 70 1025.7
20260906140502 66 236 5.0 15.0 0.00 0.35 0.06 69 1025.7
20260906140002 66 360 7.0 14.0 0.00 0.35 0.06 69 1025.7
20260906135601 66 205 5.0 15.0 0.00 0.35 0.06 69 1025.6
20260906135100 66 182 6.0 17.0 0.00 0.35 0.06 70 1025.5
20260906135002 66 227 4.0 17.0 0.00 0.35 0.06 72 1025.5
20260906134600 65 261 6.0 17.0 0.00 0.35 0.06 72 1025.6
20260906134501 65 211 8.0 17.0 0.00 0.35 0.06 72 1025.6
20260906134002 65 294 3.0 11.0 0.00 0.35 0.06 73 1025.5
20260906133604 65 157 4.0 16.0 0.00 0.35 0.06 72 1025.5
20260906133127 65 296 4.0 16.0 0.00 0.35 0.06 71 1025.5
20260906132601 65 36 4.0 13.0 0.00 0.35 0.06 71 1025.5
20260906132500 65 240 3.0 13.0 0.00 0.35 0.06 71 1025.5
20260906132101 64 304 6.0 14.0 0.00 0.35 0.06 71 1025.5
20260906131616 64 181 2.0 16.0 0.00 0.35 0.06 72 1025.4
20260906131100 64 312 6.0 17.0 0.00 0.35 0.06 70 1025.3
20260906130600 65 225 8.0 17.0 0.00 0.35 0.06 70 1025.3
20260906130112 65 227 7.0 16.0 0.00 0.35 0.06 70 1025.3
20260906130000 65 230 6.0 16.0 0.00 0.35 0.06 70 1025.2
20260906125604 65 218 4.0 16.0 0.00 0.35 0.06 71 1025.3
20260906125000 65 290 6.0 15.0 0.00 0.35 0.06 71 1025.2
20260906124600 65 250 4.0 12.0 0.00 0.35 0.06 73 1025.2
20260906124103 64 306 4.0 11.0 0.00 0.35 0.06 74 1025.2
20260906124001 64 260 6.0 12.0 0.00 0.35 0.06 73 1025.2
20260906123600 64 294 5.0 12.0 0.00 0.35 0.06 75 1025.2
20260906123101 63 279 3.0 14.0 0.00 0.35 0.06 74 1025.2
20260906122604 65 221 7.0 14.0 0.00 0.35 0.06 72 1025.1
20260906122002 66 292 6.0 13.0 0.00 0.35 0.06 69 1025.0
20260906121600 67 262 4.0 13.0 0.00 0.35 0.06 68 1024.9
20260906121100 67 229 6.0 12.0 0.00 0.35 0.06 68 1024.8
20260906121002 67 265 4.0 15.0 0.00 0.35 0.06 68 1024.8
20260906120600 66 221 7.0 15.0 0.00 0.35 0.06 68 1024.8
20260906120104 66 269 7.0 15.0 0.00 0.35 0.06 70 1024.7
20260906115600 66 246 6.0 14.0 0.00 0.35 0.06 69 1024.7
20260906115000 66 237 5.0 16.0 0.00 0.35 0.06 71 1024.6
20260906114600 66 194 6.0 16.0 0.00 0.35 0.06 72 1024.6
20260906114100 65 218 7.0 15.0 0.00 0.35 0.06 72 1024.5
20260906113600 65 239 5.0 15.0 0.00 0.35 0.06 72 1024.5
20260906113101 65 233 3.0 15.0 0.00 0.35 0.06 72 1024.3
20260906112600 65 311 5.0 17.0 0.00 0.35 0.06 74 1024.3
20260906112101 64 229 5.0 19.0 0.00 0.35 0.06 74 1024.4
20260906111600 64 293 7.0 19.0 0.00 0.35 0.06 73 1024.3
20260906111101 64 240 5.0 13.0 0.00 0.35 0.06 74 1024.3
20260906110600 64 240 7.0 13.0 0.00 0.35 0.06 74 1024.3
20260906110000 65 227 2.0 16.0 0.00 0.35 0.06 75 1024.2
20260906105600 65 225 9.0 16.0 0.00 0.35 0.06 75 1024.2
20260906105102 64 242 8.0 14.0 0.00 0.35 0.06 75 1024.1
20260906104601 64 248 7.0 14.0 0.00 0.35 0.06 77 1024.0
20260906104501 64 274 6.0 14.0 0.00 0.35 0.06 79 1024.0
20260906104100 63 254 6.0 15.0 0.00 0.35 0.06 79 1023.9
20260906103601 62 300 7.0 15.0 0.00 0.35 0.06 82 1024.0
20260906103101 61 246 6.0 11.0 0.00 0.35 0.06 82 1023.9
20260906102600 62 304 6.0 13.0 0.00 0.35 0.06 81 1023.9
20260906102100 63 301 4.0 11.0 0.00 0.35 0.06 78 1023.8
20260906102001 64 236 4.0 12.0 0.00 0.35 0.06 78 1023.7
20260906101600 64 236 6.0 13.0 0.00 0.35 0.06 77 1023.6
20260906101503 64 221 7.0 13.0 0.00 0.35 0.06 77 1023.6
20260906101100 64 304 6.0 13.0 0.00 0.35 0.06 78 1023.6
20260906100601 64 48 6.0 15.0 0.00 0.35 0.06 80 1023.6
20260906100111 63 221 8.0 15.0 0.00 0.35 0.06 82 1023.6
20260906100002 63 235 5.0 14.0 0.00 0.35 0.06 83 1023.6
20260906095604 62 245 6.0 15.0 0.00 0.35 0.06 84 1023.6
20260906095101 61 219 8.0 15.0 0.00 0.35 0.06 84 1023.5
20260906095001 61 237 7.0 15.0 0.00 0.35 0.06 84 1023.5
20260906094614 61 305 6.0 14.0 0.00 0.35 0.06 84 1023.4
20260906094001 61 300 5.0 14.0 0.00 0.35 0.06 85 1023.4
20260906093604 61 290 6.0 13.0 0.00 0.35 0.06 85 1023.3
20260906093501 61 173 4.0 13.0 0.00 0.35 0.06 85 1023.4
20260906093100 61 286 8.0 18.0 0.00 0.35 0.06 85 1023.4
20260906092603 61 257 6.0 19.0 0.00 0.35 0.06 85 1023.2
20260906092100 61 218 4.0 12.0 0.01 0.35 0.06 87 1023.3
20260906091601 61 215 6.0 12.0 0.01 0.35 0.06 87 1023.1
20260906091102 60 207 5.0 15.0 0.02 0.35 0.06 88 1023.1
20260906091001 60 175 5.0 15.0 0.02 0.35 0.06 88 1023.1
20260906090600 59 251 3.0 15.0 0.02 0.35 0.06 88 1023.0
20260906090110 59 229 7.0 15.0 0.02 0.35 0.06 89 1023.1
20260906090002 59 227 4.0 12.0 0.02 0.35 0.06 89 1023.1
20260906085603 58 220 5.0 12.0 0.02 0.35 0.06 89 1023.0
20260906085501 58 140 4.0 9.0 0.02 0.35 0.06 89 1023.1
20260906085102 58 207 3.0 9.0 0.02 0.35 0.06 89 1023.0
20260906084600 58 292 2.0 8.0 0.02 0.35 0.06 89 1022.9
20260906084100 58 207 2.0 12.0 0.02 0.35 0.06 89 1022.9
20260906083600 57 223 3.0 12.0 0.02 0.35 0.06 89 1022.9
20260906083100 57 227 3.0 10.0 0.02 0.35 0.06 89 1022.8
20260906083005 57 151 3.0 10.0 0.02 0.35 0.06 89 1022.8
20260906082600 57 240 3.0 10.0 0.02 0.35 0.06 89 1022.7
20260906082101 58 202 3.0 10.0 0.01 0.34 0.06 89 1022.7
20260906081600 58 253 2.0 11.0 0.01 0.34 0.06 89 1022.6
20260906081500 58 222 4.0 11.0 0.01 0.34 0.06 89 1022.6
20260906081101 58 297 4.0 11.0 0.00 0.33 0.05 89 1022.5
20260906080600 58 223 4.0 11.0 0.00 0.33 0.05 89 1022.4
20260906080002 58 285 4.0 12.0 0.00 0.33 0.05 89 1022.3
20260906075600 58 214 5.0 12.0 0.00 0.33 0.05 89 1022.3
20260906075101 58 207 4.0 13.0 0.00 0.33 0.05 89 1022.2
20260906074601 57 281 5.0 13.0 0.00 0.33 0.05 89 1022.1
20260906074059 57 246 4.0 11.0 0.00 0.33 0.05 89 1022.0
20260906074002 57 291 3.0 11.0 0.00 0.33 0.05 89 1022.0
20260906073603 57 223 5.0 11.0 0.00 0.33 0.05 89 1021.9
20260906073104 57 244 3.0 10.0 0.00 0.33 0.05 89 1021.9
20260906072600 57 236 2.0 12.0 0.00 0.33 0.05 89 1021.8
20260906072100 57 236 3.0 10.0 0.00 0.33 0.05 89 1021.8
20260906071601 56 130 2.0 13.0 0.00 0.33 0.05 89 1021.6
20260906071101 56 222 6.0 13.0 0.00 0.33 0.05 89 1021.6
20260906070504 56 276 4.0 14.0 0.01 0.33 0.05 89 1021.5
20260906070100 56 214 1.0 9.0 0.01 0.33 0.05 89 1021.4
20260906070002 56 214 1.0 9.0 0.01 0.33 0.05 89 1021.4
20260906065602 56 241 4.0 9.0 0.02 0.33 0.05 89 1021.4
20260906065100 56 212 4.0 10.0 0.02 0.33 0.05 89 1021.3
20260906065000 56 294 5.0 10.0 0.02 0.33 0.05 89 1021.3
20260906064501 56 259 4.0 9.0 0.02 0.33 0.05 89 1021.2
20260906064001 56 257 5.0 14.0 0.02 0.33 0.05 89 1021.1
20260906063559 56 250 6.0 14.0 0.02 0.33 0.05 89 1021.1
20260906063502 56 234 5.0 14.0 0.02 0.33 0.05 89 1021.1
20260906063100 56 240 6.0 13.0 0.02 0.33 0.05 89 1021.0
20260906062559 56 177 5.0 12.0 0.02 0.33 0.05 89 1020.9
20260906062101 56 255 4.0 12.0 0.02 0.33 0.05 89 1020.9
20260906062001 56 221 4.0 12.0 0.02 0.33 0.05 89 1020.8
20260906061601 56 223 4.0 9.0 0.02 0.33 0.05 89 1020.8
20260906061101 56 239 4.0 9.0 0.02 0.32 0.04 89 1020.8
20260906060601 56 315 3.0 10.0 0.02 0.32 0.04 89 1020.6
20260906060501 56 220 3.0 10.0 0.02 0.32 0.04 89 1020.6
20260906060104 56 232 6.0 10.0 0.02 0.32 0.04 89 1020.5
20260906060003 56 217 5.0 9.0 0.02 0.32 0.04 89 1020.5
20260906055601 56 232 4.0 9.0 0.01 0.31 0.03 89 1020.5
20260906055502 56 269 4.0 9.0 0.01 0.31 0.03 89 1020.4
20260906055101 56 216 3.0 12.0 0.00 0.31 0.02 89 1020.4
20260906054601 56 225 4.0 14.0 0.00 0.31 0.02 89 1020.2
20260906054102 56 253 4.0 14.0 0.00 0.31 0.02 89 1020.1
20260906054002 56 225 5.0 14.0 0.00 0.31 0.02 89 1020.1
20260906053600 55 295 4.0 11.0 0.00 0.31 0.02 89 1019.9
20260906053100 55 223 5.0 13.0 0.00 0.31 0.02 89 1019.9
20260906052559 55 153 6.0 15.0 0.00 0.31 0.02 89 1019.8
20260906052502 55 283 6.0 15.0 0.00 0.31 0.02 89 1019.8
20260906052002 55 233 5.0 11.0 0.00 0.31 0.02 89 1019.7
20260906051602 55 302 3.0 11.0 0.00 0.31 0.02 89 1019.6
20260906051501 55 246 4.0 11.0 0.00 0.31 0.02 89 1019.6
20260906051100 55 202 4.0 11.0 0.00 0.31 0.02 89 1019.6
20260906050600 55 265 5.0 9.0 0.00 0.31 0.02 89 1019.5
20260906050500 55 198 4.0 9.0 0.00 0.31 0.02 89 1019.5
20260906050101 55 213 2.0 9.0 0.00 0.31 0.02 89 1019.4
20260906045558 55 217 4.0 10.0 0.00 0.31 0.02 89 1019.4
20260906045059 55 222 5.0 9.0 0.00 0.31 0.02 89 1019.3
20260906044559 55 275 2.0 11.0 0.00 0.31 0.02 89 1019.3
20260906044059 55 216 3.0 14.0 0.00 0.31 0.02 89 1019.2
20260906043559 55 220 4.0 12.0 0.00 0.31 0.02 89 1019.2
20260906043059 55 177 5.0 12.0 0.00 0.31 0.02 89 1019.0
20260906042558 55 253 5.0 11.0 0.00 0.31 0.02 89 1018.9
20260906042104 55 236 5.0 16.0 0.00 0.31 0.02 89 1018.9
20260906041600 55 212 5.0 16.0 0.00 0.31 0.02 89 1018.8
20260906041058 55 292 5.0 11.0 0.00 0.31 0.02 89 1018.8
20260906040559 55 206 6.0 15.0 0.00 0.31 0.02 89 1018.7
20260906040059 55 217 6.0 15.0 0.00 0.31 0.02 89 1018.6
20260906040002 55 211 5.0 15.0 0.00 0.31 0.02 89 1018.6
20260906035601 55 276 5.0 13.0 0.01 0.31 0.02 89 1018.6
20260906035500 55 222 7.0 13.0 0.01 0.31 0.02 89 1018.5
20260906035100 55 209 5.0 12.0 0.01 0.31 0.02 89 1018.4
20260906035001 55 200 5.0 11.0 0.01 0.31 0.02 89 1018.4
20260906034601 55 193 6.0 11.0 0.01 0.31 0.02 89 1018.4
20260906034501 55 235 5.0 12.0 0.01 0.31 0.02 89 1018.4
20260906034100 54 237 5.0 11.0 0.02 0.31 0.02 89 1018.3
20260906033605 54 271 5.0 12.0 0.02 0.31 0.02 89 1018.3
20260906033104 54 225 4.0 17.0 0.02 0.31 0.02 89 1018.2
20260906032601 54 205 7.0 17.0 0.02 0.31 0.02 89 1018.1
20260906032101 54 264 5.0 11.0 0.02 0.31 0.02 89 1018.0
20260906031601 54 216 6.0 14.0 0.02 0.31 0.02 89 1018.1
20260906031100 55 153 5.0 16.0 0.02 0.31 0.02 89 1018.1
20260906031001 55 254 5.0 16.0 0.02 0.31 0.02 89 1018.1
20260906030600 55 227 7.0 16.0 0.02 0.31 0.02 89 1018.1
20260906030059 55 217 8.0 16.0 0.02 0.31 0.02 89 1017.9
20260906030001 55 214 6.0 15.0 0.02 0.31 0.02 89 1018.0
20260906025600 55 225 5.0 11.0 0.02 0.30 0.02 89 1018.1
20260906025059 55 228 4.0 10.0 0.02 0.30 0.02 89 1018.0
20260906024600 55 222 4.0 11.0 0.02 0.30 0.02 89 1018.1
20260906024100 55 275 5.0 15.0 0.01 0.28 0.01 88 1018.0
20260906024003 55 227 5.0 15.0 0.01 0.28 0.01 88 1018.0
20260906023505 55 225 7.0 14.0 0.01 0.28 0.01 88 1017.9
20260906023100 55 223 7.0 11.0 0.01 0.28 0.01 88 1017.8
20260906022559 55 235 2.0 15.0 0.01 0.28 0.01 88 1017.7
20260906022102 55 213 6.0 16.0 0.01 0.28 0.01 89 1017.6
20260906021600 55 223 7.0 16.0 0.01 0.28 0.01 89 1017.7
20260906021100 55 207 7.0 13.0 0.00 0.28 0.00 89 1017.7
20260906021000 55 209 7.0 13.0 0.00 0.28 0.00 89 1017.7
20260906020600 55 211 6.0 14.0 0.00 0.28 0.00 89 1017.8
20260906020101 55 230 8.0 14.0 0.00 0.28 0.00 89 1017.7
20260906020002 55 182 5.0 12.0 0.00 0.28 0.00 89 1017.6
20260906015559 55 227 4.0 11.0 0.00 0.28 0.00 89 1017.6
20260906015100 55 228 5.0 17.0 0.00 0.28 0.00 89 1017.6
20260906015001 55 220 6.0 17.0 0.00 0.28 0.00 89 1017.5
20260906014611 55 225 6.0 17.0 0.00 0.28 0.00 89 1017.5
20260906014101 55 174 5.0 11.0 0.00 0.28 0.00 89 1017.6
20260906013600 55 211 5.0 11.0 0.00 0.28 0.00 89 1017.5
20260906013059 55 222 4.0 12.0 0.00 0.28 0.00 89 1017.4
20260906012600 55 192 5.0 16.0 0.00 0.28 0.00 89 1017.4
20260906012104 55 181 7.0 16.0 0.00 0.28 0.00 89 1017.4
20260906011615 55 220 6.0 14.0 0.00 0.28 0.00 89 1017.4
20260906011101 55 219 6.0 17.0 0.00 0.28 0.00 89 1017.4
20260906010600 55 227 7.0 17.0 0.00 0.28 0.00 89 1017.3
20260906010000 55 227 7.0 12.0 0.00 0.28 0.00 89 1017.3
20260906005600 55 294 5.0 12.0 0.00 0.28 0.00 89 1017.4
20260906005102 54 216 3.0 11.0 0.00 0.28 0.00 88 1017.3
20260906004600 54 188 5.0 11.0 0.00 0.28 0.00 89 1017.4
20260906004058 54 173 3.0 9.0 0.00 0.28 0.00 88 1017.4
20260906003558 54 181 6.0 10.0 0.00 0.28 0.00 88 1017.4
20260906003059 54 252 5.0 10.0 0.00 0.28 0.00 88 1017.4
20260906002559 54 237 4.0 10.0 0.00 0.28 0.00 88 1017.4
20260906002101 54 227 3.0 12.0 0.00 0.28 0.00 88 1017.4
20260906001602 54 225 5.0 11.0 0.00 0.28 0.00 88 1017.5
20260906001103 54 218 3.0 10.0 0.00 0.28 0.00 88 1017.4
20260906000600 54 215 5.0 10.0 0.00 0.28 0.00 88 1017.4
20260906000100 54 219 4.0 10.0 0.00 0.28 0.00 88 1017.3
20260905235558 54 188 3.0 8.0 0.00 0.28 0.00 88 1017.3
20260905235059 54 218 4.0 11.0 0.00 0.28 0.00 88 1017.4
20260905234603 55 214 5.0 13.0 0.00 0.28 0.00 88 1017.3
20260905234059 54 214 5.0 11.0 0.00 0.28 0.00 88 1017.3
20260905233600 54 188 3.0 10.0 0.00 0.28 0.00 88 1017.3
20260905233123 54 225 5.0 10.0 0.00 0.28 0.00 88 1017.3
20260905232558 54 205 4.0 9.0 0.00 0.28 0.00 88 1017.3
20260905232058 54 205 3.0 10.0 0.00 0.28 0.00 88 1017.2
20260905231559 54 235 5.0 10.0 0.00 0.28 0.00 88 1017.3
20260905231059 54 232 5.0 9.0 0.00 0.28 0.00 87 1017.2
20260905230603 54 234 3.0 12.0 0.00 0.28 0.00 87 1017.2
20260905230059 54 207 5.0 12.0 0.00 0.28 0.00 88 1017.1
20260905230002 54 186 5.0 11.0 0.00 0.28 0.00 88 1017.2
20260905225559 54 229 5.0 9.0 0.00 0.28 0.00 88 1017.2
20260905225100 54 205 0.0 9.0 0.00 0.28 0.00 88 1017.2
20260905224620 54 232 5.0 9.0 0.00 0.28 0.00 88 1017.2
20260905224100 54 205 3.0 11.0 0.00 0.28 0.00 88 1017.1
20260905223600 53 205 5.0 10.0 0.00 0.28 0.00 88 1017.2
20260905223106 53 184 3.0 10.0 0.00 0.28 0.00 88 1017.2
20260905222603 53 159 4.0 9.0 0.00 0.28 0.00 88 1017.2
20260905222059 53 221 4.0 9.0 0.00 0.28 0.00 88 1017.2
20260905222002 54 202 4.0 10.0 0.00 0.28 0.00 88 1017.2
20260905221601 54 186 4.0 10.0 0.00 0.28 0.00 88 1017.2
20260905221101 54 215 6.0 10.0 0.00 0.28 0.00 88 1017.2
20260905220600 54 184 3.0 11.0 0.00 0.28 0.00 88 1017.2
20260905220500 54 211 4.0 11.0 0.00 0.28 0.00 88 1017.1
20260905220104 54 202 4.0 7.0 0.00 0.28 0.00 88 1017.1
20260905220006 54 225 4.0 7.0 0.00 0.28 0.00 88 1017.1
20260905215504 54 205 3.0 9.0 0.00 0.43 0.28 88 1017.1
20260905215003 54 209 4.0 10.0 0.00 0.43 0.28 88 1017.0
20260905214502 54 221 4.0 11.0 0.00 0.43 0.28 88 1017.0
20260905214002 54 242 4.0 9.0 0.00 0.43 0.28 88 1017.0
20260905213501 54 196 5.0 9.0 0.00 0.43 0.28 88 1016.9
20260905213002 54 218 4.0 8.0 0.00 0.43 0.28 88 1016.8
20260905212502 54 223 4.0 8.0 0.00 0.43 0.28 88 1016.7
20260905212001 54 217 4.0 9.0 0.00 0.43 0.28 88 1016.7
20260905211502 54 175 4.0 11.0 0.00 0.43 0.28 88 1016.7
20260905211002 54 222 5.0 10.0 0.00 0.43 0.28 88 1016.6
20260905210502 54 232 3.0 8.0 0.00 0.43 0.28 88 1016.7
20260905210002 54 213 4.0 8.0 0.00 0.43 0.28 88 1016.7
20260905205501 54 204 4.0 8.0 0.00 0.43 0.28 88 1016.7
20260905205001 54 218 4.0 8.0 0.00 0.43 0.28 88 1016.6
20260905204600 54 178 4.0 8.0 0.00 0.43 0.28 88 1016.7
20260905204501 54 171 3.0 8.0 0.00 0.43 0.28 88 1016.7
20260905204001 54 218 4.0 8.0 0.00 0.43 0.28 88 1016.7
20260905203501 54 167 3.0 6.0 0.00 0.43 0.28 88 1016.7
20260905203105 54 200 2.0 6.0 0.00 0.43 0.28 88 1016.7
20260905203002 54 196 3.0 6.0 0.00 0.43 0.28 88 1016.6
20260905202501 54 199 3.0 7.0 0.00 0.43 0.28 88 1016.7
20260905202001 54 269 3.0 7.0 0.00 0.43 0.28 88 1016.7
20260905201611 54 199 3.0 7.0 0.00 0.43 0.28 88 1016.6
20260905201502 54 220 3.0 8.0 0.00 0.43 0.28 88 1016.6
20260905201100 54 186 2.0 12.0 0.00 0.43 0.28 88 1016.6
20260905201001 54 230 2.0 12.0 0.00 0.43 0.28 88 1016.6
20260905200501 54 213 3.0 9.0 0.00 0.43 0.28 88 1016.5
20260905200005 54 209 4.0 9.0 0.00 0.43 0.28 88 1016.5
20260905195501 54 230 4.0 7.0 0.00 0.43 0.28 88 1016.4
20260905195002 54 165 5.0 8.0 0.00 0.43 0.28 88 1016.4